Weather History for Deming, NM

Change the Weather History Date:

Saturday, October 8, 2011

  Actual Average Record
Temperature  
Mean Temperature 50 °F 65 °F  
Max Temperature 66 °F 81 °F 89 °F (1956)
Min Temperature 34 °F 49 °F 34 °F (2011)
Degree Days  
Heating Degree Days 16    
Moisture  
Dew Point 27 °F    
Average Humidity 51    
Maximum Humidity 82    
Minimum Humidity 20    
Precipitation  
Precipitation 0.00 in 0.04 in 0.52 in (1985)
Month to date precipitation 0.56 0.30  
Year to date precipitation 3.18 9.19  
Sea Level Pressure  
Sea Level Pressure 29.95 in    
Wind  
Wind Speed 3 mph (West)    
Max Wind Speed 14 mph    
Max Gust Speed 17 mph    
Visibility 10 miles    
Events      
T = Trace of Precipitation, MM = Missing Value Source: NWS Daily Summary

Daily Weather History Graph

Daily Weather History Graph

Search for Another Location

Airport:

Trip Planner

Search our weather history database for the weather conditions in past years. The results will help you decide how hot, cold, wet, or windy it might be!

Date:

Astronomy

Oct. 08, 2011 Rise Set
Actual Time 7:09 AM MDT 6:46 PM MDT
Civil Twilight 6:44 AM MDT 7:11 PM MDT
Nautical Twilight 6:16 AM MDT 7:39 PM MDT
Astronomical Twilight 5:48 AM MDT 8:08 PM MDT
Moon 4:51 PM MDT (10/8) 4:08 AM MDT (10/8)
Length of Visible Light 12h 26m
Length of Day
11h 37m
Waxing Gibbous, 90% of the Moon is Illuminated
Oct 8
Waxing Gibbous
Oct 11
Full
Oct 19
Last Quarter
Oct 26
New
Nov 2
First Quarter

Hourly Weather History & Observations

Time (MDT) Temp. Windchill Dew Point Humidity Pressure Visibility Wind Dir Wind Speed Gust Speed Precip Events Conditions
12:53 AM 46.9 °F - 28.9 °F 50% 29.93 in 10.0 mi WSW 5.8 mph - N/A   Clear
1:53 AM 44.1 °F 40.8 °F 30.0 °F 58% 29.93 in 10.0 mi West 5.8 mph - N/A   Clear
2:53 AM 39.9 °F 37.8 °F 30.0 °F 68% 29.94 in 10.0 mi WNW 3.5 mph - N/A   Clear
3:53 AM 39.9 °F - 30.9 °F 70% 29.96 in 10.0 mi Calm Calm - N/A   Scattered Clouds
4:53 AM 37.0 °F 34.5 °F 30.0 °F 76% 29.96 in 10.0 mi WNW 3.5 mph - N/A   Clear
5:53 AM 35.6 °F - 30.2 °F 81% 30.05 in 10.0 mi Calm Calm - N/A   Clear
6:53 AM 35.6 °F 31.7 °F 28.4 °F 75% 30.06 in 10.0 mi NW 4.6 mph - N/A   Clear
7:53 AM 37.0 °F - 30.0 °F 76% 30.00 in 10.0 mi Calm Calm - N/A   Clear
8:53 AM 45.0 °F - 30.0 °F 56% 30.00 in 10.0 mi Calm Calm - N/A   Clear
9:53 AM 50.0 °F - 30.0 °F 46% 30.00 in 10.0 mi Calm Calm - N/A   Clear
10:53 AM 55.0 °F - 28.9 °F 37% 29.98 in 10.0 mi ESE 5.8 mph - N/A   Clear
11:53 AM 59.0 °F - 28.4 °F 31% 30.07 in 10.0 mi Variable 5.8 mph - N/A   Scattered Clouds
12:53 PM 60.1 °F - 24.1 °F 25% 29.93 in 10.0 mi West 5.8 mph - N/A   Clear
1:53 PM 62.1 °F - 23.0 °F 22% 29.90 in - WSW 3.5 mph - N/A   Clear
2:53 PM 64.0 °F - 26.1 °F 24% 29.88 in - SSW 9.2 mph - N/A   Clear
3:53 PM 64.9 °F - 23.0 °F 20% 29.87 in - West 3.5 mph 16.1 mph N/A   Clear
4:53 PM 64.9 °F - 23.0 °F 20% 29.88 in - WSW 6.9 mph - N/A   Clear
5:53 PM 64.4 °F - 23.0 °F 21% 29.98 in - Variable 3.5 mph - N/A   Clear
6:53 PM 61.0 °F - 23.0 °F 23% 29.90 in - West 3.5 mph - N/A   Clear
7:53 PM 57.9 °F - 19.9 °F 23% 29.92 in - Calm Calm - N/A   Clear
8:53 PM 53.1 °F - 24.1 °F 32% 29.94 in - NNW 3.5 mph - N/A   Clear
9:53 PM 51.1 °F - 23.0 °F 33% 29.94 in - NW 4.6 mph - N/A   Clear
10:53 PM 48.0 °F - 25.0 °F 41% 29.93 in - WNW 3.5 mph - N/A   Clear
11:53 PM 43.0 °F 40.3 °F 26.1 °F 51% 29.93 in - NNE 4.6 mph - N/A   Clear